Time,TemperatureF,DewpointF,PressureIn,WindDirection,WindDirectionDegrees,WindSpeedMPH,WindSpeedGustMPH,Humidity,HourlyPrecipIn,Conditions,Clouds,dailyrainin,SoftwareType,DateUTC
2013-01-22 00:12:00,65.2,64.0,30.02,WNW,289,0.0,-999.0,95,-99.99,,,0.00,weatherlink.com 1.10,2013-01-22 05:12:00,
2013-01-22 00:27:00,65.1,64.0,30.02,WSW,245,0.0,-999.0,95,-99.99,,,0.00,weatherlink.com 1.10,2013-01-22 05:27:00,
2013-01-22 00:42:00,65.1,64.0,30.01,WNW,293,0.0,-999.0,95,-99.99,,,0.00,weatherlink.com 1.10,2013-01-22 05:42:00,
2013-01-22 00:57:00,64.9,64.0,30.01,WSW,257,0.0,-999.0,96,-99.99,,,0.00,weatherlink.com 1.10,2013-01-22 05:57:00,
2013-01-22 01:12:00,64.7,63.0,30.01,NW,305,0.0,-999.0,95,-99.99,,,0.00,weatherlink.com 1.10,2013-01-22 06:12:00,
2013-01-22 01:27:00,64.5,63.0,30.00,NW,311,0.0,-999.0,95,-99.99,,,0.00,weatherlink.com 1.10,2013-01-22 06:27:00,
2013-01-22 01:42:00,64.3,63.0,30.00,NW,313,0.0,-999.0,95,-99.99,,,0.00,weatherlink.com 1.10,2013-01-22 06:42:00,
2013-01-22 01:57:00,64.2,63.0,30.00,WNW,298,3.0,-999.0,96,-99.99,,,0.00,weatherlink.com 1.10,2013-01-22 06:57:00,
2013-01-22 02:12:00,64.2,63.0,30.00,NNW,332,2.0,-999.0,95,-99.99,,,0.00,weatherlink.com 1.10,2013-01-22 07:12:00,
2013-01-22 02:27:00,64.2,63.0,30.00,WNW,296,1.0,-999.0,95,-99.99,,,0.00,weatherlink.com 1.10,2013-01-22 07:27:00,
2013-01-22 02:42:00,64.0,63.0,30.00,West,259,1.0,-999.0,95,-99.99,,,0.00,weatherlink.com 1.10,2013-01-22 07:42:00,
2013-01-22 02:58:00,63.8,62.0,30.00,WNW,286,0.0,-999.0,95,-99.99,,,0.00,weatherlink.com 1.10,2013-01-22 07:58:00,
2013-01-22 03:13:00,63.7,62.0,30.00,NW,315,1.0,-999.0,95,-99.99,,,0.00,weatherlink.com 1.10,2013-01-22 08:13:00,
2013-01-22 03:28:00,63.7,62.0,29.99,WNW,298,3.0,-999.0,95,-99.99,,,0.00,weatherlink.com 1.10,2013-01-22 08:28:00,
2013-01-22 03:43:00,63.7,62.0,29.99,NW,322,0.0,-999.0,94,-99.99,,,0.00,weatherlink.com 1.10,2013-01-22 08:43:00,
2013-01-22 03:58:00,63.4,62.0,30.00,NW,322,1.0,-999.0,94,-99.99,,,0.00,weatherlink.com 1.10,2013-01-22 08:58:00,
2013-01-22 04:13:00,63.3,62.0,29.99,NW,323,1.0,-999.0,94,-99.99,,,0.00,weatherlink.com 1.10,2013-01-22 09:13:00,
2013-01-22 04:28:00,63.1,61.0,29.99,WNW,283,0.0,-999.0,94,-99.99,,,0.00,weatherlink.com 1.10,2013-01-22 09:28:00,
2013-01-22 04:43:00,63.0,61.0,30.00,WNW,286,2.0,-999.0,94,-99.99,,,0.00,weatherlink.com 1.10,2013-01-22 09:43:00,
2013-01-22 04:58:00,62.8,61.0,30.00,NW,323,5.0,-999.0,93,-99.99,,,0.00,weatherlink.com 1.10,2013-01-22 09:58:00,
2013-01-22 05:13:00,62.8,61.0,30.01,NW,318,1.0,-999.0,93,-99.99,,,0.00,weatherlink.com 1.10,2013-01-22 10:13:00,
2013-01-22 05:28:00,62.8,61.0,30.01,NW,307,0.0,-999.0,92,-99.99,,,0.00,weatherlink.com 1.10,2013-01-22 10:28:00,
2013-01-22 05:43:00,62.7,60.0,30.02,NNW,330,1.0,-999.0,92,-99.99,,,0.00,weatherlink.com 1.10,2013-01-22 10:43:00,
2013-01-22 05:58:00,62.5,60.0,30.02,NW,310,1.0,-999.0,92,-99.99,,,0.00,weatherlink.com 1.10,2013-01-22 10:58:00,
2013-01-22 06:13:00,62.3,60.0,30.03,NW,318,2.0,-999.0,92,-99.99,,,0.00,weatherlink.com 1.10,2013-01-22 11:13:00,
2013-01-22 06:28:00,62.2,60.0,30.04,West,279,2.0,-999.0,92,-99.99,,,0.00,weatherlink.com 1.10,2013-01-22 11:28:00,
2013-01-22 06:43:00,62.1,60.0,30.04,NW,321,2.0,-999.0,92,-99.99,,,0.00,weatherlink.com 1.10,2013-01-22 11:43:00,
2013-01-22 06:58:00,62.0,60.0,30.04,NW,318,1.0,-999.0,92,-99.99,,,0.00,weatherlink.com 1.10,2013-01-22 11:58:00,
2013-01-22 07:13:00,61.9,60.0,30.05,NW,311,2.0,-999.0,92,-99.99,,,0.00,weatherlink.com 1.10,2013-01-22 12:13:00,
2013-01-22 07:28:00,61.8,59.0,30.06,NW,321,2.0,-999.0,91,-99.99,,,0.00,weatherlink.com 1.10,2013-01-22 12:28:00,
2013-01-22 07:43:00,61.9,59.0,30.06,NNW,329,2.0,-999.0,91,-99.99,,,0.00,weatherlink.com 1.10,2013-01-22 12:43:00,
2013-01-22 07:58:00,62.2,59.0,30.07,NW,325,2.0,-999.0,90,-99.99,,,0.00,weatherlink.com 1.10,2013-01-22 12:58:00,
2013-01-22 08:13:00,62.4,60.0,30.08,NNW,336,3.0,-999.0,90,-99.99,,,0.00,weatherlink.com 1.10,2013-01-22 13:13:00,
2013-01-22 08:28:00,62.8,60.0,30.08,WNW,299,2.0,-999.0,89,-99.99,,,0.00,weatherlink.com 1.10,2013-01-22 13:28:00,
2013-01-22 08:43:00,63.4,60.0,30.09,NNW,343,2.0,-999.0,88,-99.99,,,0.00,weatherlink.com 1.10,2013-01-22 13:43:00,
2013-01-22 08:58:00,64.3,60.0,30.09,NW,313,4.0,-999.0,85,-99.99,,,0.00,weatherlink.com 1.10,2013-01-22 13:58:00,
2013-01-22 09:13:00,65.2,60.0,30.09,NNW,336,4.0,-999.0,83,-99.99,,,0.00,weatherlink.com 1.10,2013-01-22 14:13:00,
2013-01-22 09:28:00,66.4,60.0,30.09,NNW,339,6.0,-999.0,81,-99.99,,,0.00,weatherlink.com 1.10,2013-01-22 14:28:00,
2013-01-22 09:43:00,67.4,60.0,30.10,NW,323,5.0,-999.0,77,-99.99,,,0.00,weatherlink.com 1.10,2013-01-22 14:43:00,
2013-01-22 09:58:00,67.9,60.0,30.10,NW,306,0.0,-999.0,77,-99.99,,,0.00,weatherlink.com 1.10,2013-01-22 14:58:00,
2013-01-22 10:13:00,69.2,61.0,30.11,NW,313,3.0,-999.0,74,-99.99,,,0.00,weatherlink.com 1.10,2013-01-22 15:13:00,
2013-01-22 10:28:00,70.1,61.0,30.11,NE,34,3.0,-999.0,72,-99.99,,,0.00,weatherlink.com 1.10,2013-01-22 15:28:00,
2013-01-22 10:43:00,71.1,61.0,30.11,North,350,6.0,-999.0,70,-99.99,,,0.00,weatherlink.com 1.10,2013-01-22 15:43:00,
2013-01-22 10:58:00,72.2,61.0,30.11,NNW,337,5.0,-999.0,68,-99.99,,,0.00,weatherlink.com 1.10,2013-01-22 15:58:00,
2013-01-22 11:14:00,72.9,61.0,30.11,NNE,28,3.0,-999.0,66,-99.99,,,0.00,weatherlink.com 1.10,2013-01-22 16:14:00,
2013-01-22 11:29:00,73.4,61.0,30.11,NW,326,8.0,-999.0,66,-99.99,,,0.00,weatherlink.com 1.10,2013-01-22 16:29:00,
2013-01-22 11:44:00,73.7,61.0,30.11,NNE,26,6.0,-999.0,65,-99.99,,,0.00,weatherlink.com 1.10,2013-01-22 16:44:00,
2013-01-22 11:59:00,74.7,62.0,30.10,NW,320,6.0,-999.0,65,-99.99,,,0.00,weatherlink.com 1.10,2013-01-22 16:59:00,
2013-01-22 12:14:00,74.3,61.0,30.10,NNW,335,4.0,-999.0,64,-99.99,,,0.00,weatherlink.com 1.10,2013-01-22 17:14:00,
2013-01-22 12:29:00,74.9,60.0,30.09,NNW,329,5.0,-999.0,61,-99.99,,,0.00,weatherlink.com 1.10,2013-01-22 17:29:00,
2013-01-22 12:45:00,75.4,60.0,30.09,NNE,17,4.0,-999.0,60,-99.99,,,0.00,weatherlink.com 1.10,2013-01-22 17:45:00,
2013-01-22 12:59:00,75.2,61.0,30.08,NW,317,4.0,-999.0,61,-99.99,,,0.00,weatherlink.com 1.10,2013-01-22 17:59:00,
2013-01-22 13:14:00,74.3,60.0,30.07,NE,51,6.0,-999.0,61,-99.99,,,0.00,weatherlink.com 1.10,2013-01-22 18:14:00,
2013-01-22 13:29:00,75.3,60.0,30.07,North,350,8.0,-999.0,59,-99.99,,,0.00,weatherlink.com 1.10,2013-01-22 18:29:00,
2013-01-22 13:44:00,75.1,60.0,30.07,NNW,342,8.0,-999.0,60,-99.99,,,0.00,weatherlink.com 1.10,2013-01-22 18:44:00,
2013-01-22 13:59:00,75.5,60.0,30.08,NE,40,4.0,-999.0,59,-99.99,,,0.00,weatherlink.com 1.10,2013-01-22 18:59:00,
2013-01-22 14:14:00,75.1,61.0,30.07,NNW,331,5.0,-999.0,61,-99.99,,,0.00,weatherlink.com 1.10,2013-01-22 19:14:00,
2013-01-22 14:29:00,74.6,60.0,30.07,NNW,347,10.0,-999.0,61,-99.99,,,0.00,weatherlink.com 1.10,2013-01-22 19:29:00,
2013-01-22 14:44:00,74.4,61.0,30.07,NNE,19,11.0,-999.0,63,-99.99,,,0.00,weatherlink.com 1.10,2013-01-22 19:44:00,
2013-01-22 14:59:00,73.4,60.0,30.08,ENE,58,8.0,-999.0,63,-99.99,,,0.00,weatherlink.com 1.10,2013-01-22 19:59:00,
2013-01-22 15:14:00,73.0,60.0,30.08,North,5,3.0,-999.0,64,-99.99,,,0.00,weatherlink.com 1.10,2013-01-22 20:14:00,
2013-01-22 15:29:00,73.4,60.0,30.09,NNE,31,1.0,-999.0,64,-99.99,,,0.00,weatherlink.com 1.10,2013-01-22 20:29:00,
2013-01-22 15:44:00,73.0,60.0,30.09,NNW,331,5.0,-999.0,63,-99.99,,,0.00,weatherlink.com 1.10,2013-01-22 20:44:00,
2013-01-22 15:59:00,72.4,59.0,30.10,NE,34,3.0,-999.0,64,-99.99,,,0.00,weatherlink.com 1.10,2013-01-22 20:59:00,
2013-01-22 16:14:00,71.8,59.0,30.11,NW,321,7.0,-999.0,65,-99.99,,,0.00,weatherlink.com 1.10,2013-01-22 21:14:00,
2013-01-22 16:29:00,71.2,59.0,30.10,NW,311,6.0,-999.0,66,-99.99,,,0.00,weatherlink.com 1.10,2013-01-22 21:29:00,
2013-01-22 16:44:00,71.0,59.0,30.11,NNW,336,8.0,-999.0,66,-99.99,,,0.00,weatherlink.com 1.10,2013-01-22 21:44:00,
2013-01-22 16:59:00,70.6,59.0,30.12,NW,317,5.0,-999.0,66,-99.99,,,0.00,weatherlink.com 1.10,2013-01-22 21:59:00,
2013-01-22 17:14:00,70.2,59.0,30.12,NNE,15,9.0,-999.0,67,-99.99,,,0.00,weatherlink.com 1.10,2013-01-22 22:14:00,
2013-01-22 17:29:00,70.2,58.0,30.13,NE,55,4.0,-999.0,65,-99.99,,,0.00,weatherlink.com 1.10,2013-01-22 22:29:00,
2013-01-22 17:44:00,69.8,57.0,30.13,NNE,23,7.0,-999.0,65,-99.99,,,0.00,weatherlink.com 1.10,2013-01-22 22:44:00,
2013-01-22 17:59:00,69.5,57.0,30.13,NNE,24,5.0,-999.0,64,-99.99,,,0.00,weatherlink.com 1.10,2013-01-22 22:59:00,
2013-01-22 18:14:00,69.2,57.0,30.14,NW,322,1.0,-999.0,65,-99.99,,,0.00,weatherlink.com 1.10,2013-01-22 23:14:00,
2013-01-22 18:29:00,68.2,57.0,30.14,NW,326,2.0,-999.0,67,-99.99,,,0.00,weatherlink.com 1.10,2013-01-22 23:29:00,
2013-01-22 18:44:00,67.6,56.0,30.14,NNW,338,3.0,-999.0,67,-99.99,,,0.00,weatherlink.com 1.10,2013-01-22 23:44:00,
2013-01-22 18:59:00,67.1,56.0,30.14,NNW,345,1.0,-999.0,68,-99.99,,,0.00,weatherlink.com 1.10,2013-01-22 23:59:00,
2013-01-22 19:14:00,66.7,56.0,30.15,NNW,341,3.0,-999.0,69,-99.99,,,0.00,weatherlink.com 1.10,2013-01-23 00:14:00,
2013-01-22 19:29:00,66.4,56.0,30.15,NNE,20,0.0,-999.0,70,-99.99,,,0.00,weatherlink.com 1.10,2013-01-23 00:29:00,
2013-01-22 19:44:00,66.3,56.0,30.16,NW,317,2.0,-999.0,70,-99.99,,,0.00,weatherlink.com 1.10,2013-01-23 00:44:00,
2013-01-22 19:59:00,66.0,56.0,30.16,NNE,19,0.0,-999.0,71,-99.99,,,0.00,weatherlink.com 1.10,2013-01-23 00:59:00,
2013-01-22 20:14:00,66.4,55.0,30.16,NNE,26,6.0,-999.0,68,-99.99,,,0.00,weatherlink.com 1.10,2013-01-23 01:14:00,
2013-01-22 20:29:00,67.8,55.0,30.17,NE,36,2.0,-999.0,64,-99.99,,,0.00,weatherlink.com 1.10,2013-01-23 01:29:00,
2013-01-22 20:44:00,68.0,55.0,30.17,NNW,344,1.0,-999.0,63,-99.99,,,0.00,weatherlink.com 1.10,2013-01-23 01:44:00,
2013-01-22 20:59:00,68.1,55.0,30.17,NE,34,2.0,-999.0,63,-99.99,,,0.00,weatherlink.com 1.10,2013-01-23 01:59:00,
2013-01-22 21:14:00,68.1,54.0,30.18,NNW,327,4.0,-999.0,62,-99.99,,,0.00,weatherlink.com 1.10,2013-01-23 02:14:00,
2013-01-22 21:29:00,68.2,55.0,30.18,NNW,346,1.0,-999.0,62,-99.99,,,0.00,weatherlink.com 1.10,2013-01-23 02:29:00,
2013-01-22 21:44:00,68.1,54.0,30.19,ESE,109,1.0,-999.0,62,-99.99,,,0.00,weatherlink.com 1.10,2013-01-23 02:44:00,
2013-01-22 21:59:00,67.9,54.0,30.20,NE,36,0.0,-999.0,62,-99.99,,,0.00,weatherlink.com 1.10,2013-01-23 02:59:00,
2013-01-22 22:14:00,67.7,54.0,30.20,NNE,28,1.0,-999.0,62,-99.99,,,0.00,weatherlink.com 1.10,2013-01-23 03:14:00,
2013-01-22 22:29:00,67.3,54.0,30.20,NNE,26,1.0,-999.0,63,-99.99,,,0.00,weatherlink.com 1.10,2013-01-23 03:29:00,
2013-01-22 22:44:00,66.9,54.0,30.20,NNE,19,1.0,-999.0,64,-99.99,,,0.00,weatherlink.com 1.10,2013-01-23 03:44:00,
2013-01-22 22:59:00,66.7,54.0,30.20,NE,40,0.0,-999.0,65,-99.99,,,0.00,weatherlink.com 1.10,2013-01-23 03:59:00,
2013-01-22 23:14:00,66.9,54.0,30.20,NNE,31,2.0,-999.0,64,-99.99,,,0.00,weatherlink.com 1.10,2013-01-23 04:14:00,
2013-01-22 23:29:00,66.9,54.0,30.19,ENE,67,3.0,-999.0,64,-99.99,,,0.00,weatherlink.com 1.10,2013-01-23 04:29:00,
2013-01-22 23:44:00,66.7,54.0,30.19,NE,55,0.0,-999.0,64,-99.99,,,0.00,weatherlink.com 1.10,2013-01-23 04:44:00,
2013-01-22 23:59:00,66.9,53.0,30.19,NE,51,4.0,-999.0,62,-99.99,,,0.00,weatherlink.com 1.10,2013-01-23 04:59:00,